Weather in Seliverstovo

Russia / Tver Oblast     56°33′24″N   36°24′11″E
temp.,
°C
wind,
m/s
gust,
m/s
humid.,
%
clouds,
%
prec.,
mm/h
press.,
hPa
HPBL,
m
20 january, wed
wed2000:00−15w239794 0.1 101770
03:00−15w249790 0.1 1018131
06:00−13wsw369697 0.3 1017165
09:00−13wsw369793 0.4 1018153
12:00−11w369392 0.0 1019266
15:00−10wsw369484 0.1 1018266
18:00−14wsw369653 0.0 1020131
21:00−16sw369627 0.0 1020119
21 january, thu
thu2100:00−17sw369224 0.0 1020136
03:00−16ssw399253 0.0 1019210
06:00−14ssw31088100 0.0 1017298
09:00−12s4995100 0.3 1014373
12:00−11ssw4894100 1.1 1013505
15:00−9sw3794100 2.1 1012502
18:00−9ssw2696100 0.3 1011233
21:00−10ssw2296100 0.3 101237
22 january, fri
fri2200:00−9sse229698 0.1 101150
03:00−8sse249698 0.1 1011110
06:00−4sse3697100 0.7 1010212
09:000ssw3898100 1.0 1010347
12:00+1ssw4995100 0.0 1009617
15:00+1ssw31098100 0.0 1009505
18:000ssw4995100 0.0 1008455
21:00+1s41197100 0.1 1008489
23 january, sat
sat2300:00+1ssw41099100 0.1 1007533
03:00+1sw31098100 0.4 1007450
06:00+1s3997100 0.1 1006400
09:00+1ssw41194100 0.1 1006482
12:00+1ssw41199100 0.6 1007614
15:00+1sw41099100 0.7 1007405
18:00+1ssw3896100 0.0 1007346
21:00+1ssw279799 0.0 1008253
24 january, sun
sun2400:00+1s2697100 0.0 1008197
03:00+1s3899100 0.0 1008290
06:00+1s2899100 0.1 1008300
09:00+2sse3998100 0.1 1008323
12:00+2sse411100100 0.0 1008458
15:00+2sse311100100 0.0 1007431
18:00+2sse41299100 0.0 1006393
21:00+2sse51498100 0.1 1005489